Home > Weather > Linköping > Past weeks

Flag for Sweden Weather for the Past 2 Weeks in Linköping, Sweden

Now
36 °F

Mostly cloudy.


Feels Like: 29 °F
Forecast: 30 / 36 °F
Wind: 8 mph from West

Location: Linkoping / Saab

Current Time: Feb 10, 2016 at 10:08:52 PM

Latest Report: Feb 10, 2016 at 9:20 PM


Visibility: N/A

Pressure: 29.12 "Hg

Humidity: 93%

Dew point: 34 °F

Location of LinköpingLocation

Historic Weather in Linköping — Graph

°F

Linköping Temperature Yesterday

Maximum temperature yesterday: 45 °F (at 12:50 PM)
Minimum temperature yesterday: 39 °F (at 1:20 AM)
Average temperature yesterday: 41 °F

High & Low Weather Summary for the Past Weeks

 TemperatureHumidityPressure
High48 °F (Jan 27, 9:20 AM)100% (Jan 27, 6:20 PM)29.95 "Hg (Jan 27, 6:20 PM)
Low28 °F (Feb 5, 4:50 AM)60% (Feb 5, 3:20 PM)28.85 "Hg (Feb 3, 1:20 AM)
Average39 °F82%29.34 "Hg
* Reported Jan 26 8:20 PM — Feb 10 8:50 PM, Linköping, Weather by CustomWeather, © 2016

Note: Actual official high and low records may vary slightly from our data, if they occured in-between our weather recording intervals... More about our weather records

Advertising

Linköping Weather History for the Previous 24 Hours

 ConditionsComfort  
Time TempWeatherWind HumidityBarometerVisibility
8:50 PM
Wed, Feb 10
36 °FMostly cloudy.9 mph100%29.09 "HgN/A
8:20 PM36 °FMostly cloudy.9 mph100%29.09 "HgN/A
7:50 PM36 °FMostly cloudy.7 mph93%29.09 "HgN/A
7:20 PM36 °FOvercast.6 mph93%29.09 "HgN/A
6:50 PM36 °FMostly cloudy.6 mph93%29.06 "HgN/A
6:20 PM36 °FMostly cloudy.9 mph93%29.03 "HgN/A
5:50 PM36 °FLow clouds.10 mph93%29.03 "HgN/A
5:20 PM34 °FLow clouds.9 mph100%29.00 "HgN/A
4:50 PM34 °FMostly cloudy.8 mph100%29.00 "Hg4 mi
4:20 PM34 °FLow clouds.8 mph100%28.97 "HgN/A
3:50 PM34 °FLow clouds.8 mph100%28.97 "HgN/A
3:20 PM36 °FLow clouds.7 mph93%28.94 "HgN/A
2:50 PM34 °FLow clouds.7 mph100%28.94 "HgN/A
2:20 PM34 °FLow clouds.7 mph100%28.91 "HgN/A
1:50 PM34 °FLow clouds.8 mph100%28.88 "HgN/A
1:20 PM36 °FFog.6 mph93%28.88 "Hg3 mi
12:50 PM36 °FFog.6 mph93%28.88 "Hg4 mi
12:20 PM34 °FDrizzle. Fog.7 mph100%28.88 "Hg2 mi
11:50 AM34 °FDrizzle. Fog.5 mph100%28.88 "Hg2 mi
11:20 AM34 °FMostly cloudy.8 mph100%28.88 "HgN/A
10:50 AM34 °FMore clouds than sun.10 mph100%28.88 "HgN/A
10:20 AM34 °FLow clouds.9 mph100%28.88 "HgN/A
9:50 AM36 °FLight rain. More clouds than sun.8 mph100%28.88 "HgN/A
9:20 AM34 °FLight snow. Fog.9 mph100%28.88 "Hg3 mi
8:50 AM34 °FLight rain. Fog.6 mph100%28.91 "Hg4 mi
8:20 AM34 °FLight rain. Low clouds.12 mph100%28.91 "HgN/A
7:50 AM34 °FLight rain. Low clouds.12 mph100%28.91 "HgN/A
7:20 AM34 °FLight rain. Fog.13 mph100%28.94 "Hg4 mi
6:50 AM34 °FRain. Fog.5 mph100%28.97 "Hg1 mi
6:20 AM34 °FLight rain. Fog.5 mph100%28.97 "Hg4 mi
5:50 AM36 °FLight rain. Partly cloudy.5 mph93%29.00 "HgN/A
5:20 AM34 °FPassing clouds.5 mph100%28.97 "HgN/A
4:50 AM34 °FPassing clouds.5 mph100%29.00 "HgN/A
4:20 AM34 °FPassing clouds.7 mph93%29.00 "HgN/A
3:50 AM34 °FPassing clouds.6 mph93%29.03 "HgN/A
3:20 AM34 °FChilly.7 mph93%29.03 "HgN/A
2:20 AM36 °FChilly.5 mph87%29.06 "HgN/A
1:50 AM36 °FChilly.6 mph87%29.06 "HgN/A
1:20 AM36 °FChilly.5 mph87%29.06 "HgN/A
12:50 AM37 °FPassing clouds.5 mph87%29.09 "HgN/A
12:20 AM39 °FOvercast.8 mph81%29.09 "HgN/A
11:50 PM
Tue, Feb 9
41 °FOvercast.10 mph76%29.09 "HgN/A
10:50 PM39 °FPassing clouds.6 mph87%29.06 "HgN/A
10:20 PM41 °FMostly cloudy.6 mph81%29.06 "HgN/A
Weather by CustomWeather, © 2016

See weather overviewHow to use our weather pages